New Philadelphia, OH

10:09 PM EDT on June 23, 2017 (GMT -0400)
Clever

Weather History for KPHD - May, 2014

Change the Weather History Date:

Friday, May 16, 2014

  Actual Average Record
Temperature  
Mean Temperature 51 °F 60 °F  
Max Temperature 57 °F 72 °F 92 °F (1962)
Min Temperature 44 °F 48 °F 30 °F (1984)
Degree Days  
Heating Degree Days 14 6  
Month to date heating degree days 98 125  
Since 1 July heating degree days 6102 5540  
Cooling Degree Days 0 1  
Month to date cooling degree days 38 7  
Year to date cooling degree days 39 14  
Moisture  
Dew Point 39 °F    
Average Humidity 67    
Maximum Humidity 82    
Minimum Humidity 51    
Precipitation  
Precipitation 0.08 in 0.14 in 1.22 in (1989)
Month to date precipitation 2.63 1.95  
Year to date precipitation 14.42 13.38  
Sea Level Pressure  
Sea Level Pressure 30.00 in    
Wind  
Wind Speed 6 mph (WNW)    
Max Wind Speed 13 mph    
Max Gust Speed 16 mph    
Visibility 10 miles    
Events      
T = Trace of Precipitation, MM = Missing Value Source: NWS Daily Summary

Daily Weather History Graph

Daily Weather History Graph

Search for Another Location

Airport or City:

Trip Planner

Search our weather history database for the weather conditions in past years. The results will help you decide how hot, cold, wet, or windy it might be!

Date:

Astronomy

May. 16, 2014 Rise Set
Actual Time 6:08 AM EDT 8:36 PM EDT
Civil Twilight 5:37 AM EDT 9:07 PM EDT
Nautical Twilight 4:58 AM EDT 9:46 PM EDT
Astronomical Twilight 4:16 AM EDT 10:29 PM EDT
Moon 10:41 PM EDT (5/16) 7:48 AM EDT (5/16)
Length of Visible Light 15h 30m
Length of Day
14h 28m
Waning Gibbous, 95% of the Moon is Illuminated
May 16
Waning Gibbous
May 21
Last Quarter
May 28
New
Jun 5
First Quarter
Jun 13
Full

Hourly Weather History & Observations

Time (EDT) Temp. Windchill Dew Point Humidity Pressure Visibility Wind Dir Wind Speed Gust Speed Precip Events Conditions
12:05 AM 51.1 °F - 43.0 °F 74% 30.02 in 10.0 mi West 5.8 mph - N/A   Overcast
12:53 AM 50.0 °F - 42.1 °F 74% 30.01 in 10.0 mi WNW 8.1 mph - N/A   Overcast
1:16 AM 48.9 °F - 41.0 °F 74% 30.00 in 10.0 mi Variable 6.9 mph - N/A   Overcast
1:51 AM 46.4 °F 42.9 °F 41.0 °F 81% 29.99 in 10.0 mi WNW 6.9 mph - N/A   Mostly Cloudy
1:53 AM 46.9 °F - 41.0 °F 80% 30.00 in 10.0 mi West 6.9 mph - N/A   Mostly Cloudy
2:07 AM 46.9 °F - 39.9 °F 77% 29.99 in 10.0 mi West 5.8 mph - N/A   Scattered Clouds
2:53 AM 46.0 °F 43.9 °F 39.9 °F 79% 29.99 in 10.0 mi West 4.6 mph - N/A   Mostly Cloudy
4:53 AM 45.0 °F 40.6 °F 37.0 °F 74% 29.99 in 10.0 mi NW 8.1 mph - N/A   Overcast
5:53 AM 45.0 °F 41.8 °F 36.0 °F 71% 29.98 in 10.0 mi WNW 5.8 mph - N/A   Overcast
6:53 AM 44.1 °F 39.5 °F 35.1 °F 71% 29.99 in 10.0 mi North 8.1 mph - N/A   Overcast
7:53 AM 45.0 °F 40.6 °F 36.0 °F 71% 30.00 in 10.0 mi North 8.1 mph - N/A   Overcast
8:53 AM 45.0 °F 40.6 °F 35.1 °F 68% 30.01 in 10.0 mi North 8.1 mph - N/A   Overcast
9:53 AM 46.9 °F - 36.0 °F 66% 30.00 in 10.0 mi Variable 4.6 mph - N/A   Overcast
10:53 AM 46.9 °F - 36.0 °F 66% 30.02 in 10.0 mi Calm Calm - N/A   Overcast
11:16 AM 48.0 °F - 36.0 °F 63% 30.01 in 10.0 mi Calm Calm - N/A   Overcast
11:53 AM 48.9 °F - 36.0 °F 61% 30.01 in 10.0 mi SSW 8.1 mph - N/A   Overcast
12:53 PM 51.1 °F - 37.0 °F 59% 30.00 in 10.0 mi Variable 3.5 mph - N/A   Mostly Cloudy
1:53 PM 54.0 °F - 37.9 °F 55% 29.99 in 10.0 mi Variable 5.8 mph - N/A   Scattered Clouds
2:53 PM 55.9 °F - 37.9 °F 51% 29.97 in 10.0 mi NW 4.6 mph - N/A   Scattered Clouds
4:53 PM 55.9 °F - 39.0 °F 53% 29.96 in 10.0 mi NNW 4.6 mph - N/A   Overcast
5:53 PM 55.9 °F - 39.0 °F 53% 29.97 in 10.0 mi West 8.1 mph - N/A   Overcast
6:53 PM 55.0 °F - 39.0 °F 55% 29.98 in 10.0 mi West 6.9 mph - N/A   Overcast
7:53 PM 54.0 °F - 39.0 °F 57% 29.99 in 10.0 mi Variable 4.6 mph - N/A   Overcast
8:53 PM 53.1 °F - 41.0 °F 64% 30.01 in 10.0 mi NW 4.6 mph - N/A   Overcast
9:53 PM 52.0 °F - 41.0 °F 66% 30.02 in 10.0 mi NNW 9.2 mph - N/A   Overcast
11:53 PM 50.0 °F - 43.0 °F 77% 30.03 in 10.0 mi East 3.5 mph - N/A   Overcast